Date,TemperatureHighF,TemperatureAvgF,TemperatureLowF,DewpointHighF,DewpointAvgF,DewpointLowF,HumidityHigh,HumidityAvg,HumidityLow,PressureMaxIn,PressureMinIn,WindSpeedMaxMPH,WindSpeedAvgMPH,GustSpeedMaxMPH,PrecipitationSumIn
2012-11-28,69,63,65,66,54,-100,94,85,90,29.96,29.94,11,-56,0,0.00
2012-11-29,79,71,61,67,63,60,97,76,57,29.97,29.91,11,11,0,0.00
2012-11-30,78,74,72,62,60,58,67,62,56,29.97,29.88,11,10,0,0.00
2012-12-1,80,75,71,65,62,60,74,64,54,29.95,29.88,11,10,0,0.00
2012-12-2,80,76,73,66,64,62,72,66,58,29.99,29.90,13,10,0,0.00
2012-12-3,80,74,71,64,60,50,74,62,47,30.00,29.91,13,11,0,0.00
2012-12-4,79,74,70,63,59,52,70,59,49,29.99,29.89,13,12,0,0.00
2012-12-5,82,75,71,65,62,60,76,65,51,29.90,29.78,13,12,0,0.00
2012-12-6,82,74,69,71,67,64,93,78,57,29.78,29.67,13,11,0,0.00
2012-12-7,83,73,67,70,68,66,99,84,58,29.78,29.69,13,11,0,0.00
2012-12-8,83,75,66,74,70,66,99,84,65,29.84,29.77,13,11,0,0.00
2012-12-9,86,77,70,75,73,70,98,88,65,29.91,29.80,13,11,0,0.00
2012-12-10,86,77,70,77,72,-100,99,86,67,29.85,29.73,13,0,0,0.00
2012-12-11,90,79,72,79,74,70,99,86,56,29.90,29.75,13,8,0,0.24
2012-12-12,84,76,71,75,72,71,99,89,66,29.94,29.85,3,0,0,0.00
2012-12-13,78,71,65,75,69,64,99,92,77,29.95,29.85,4,1,0,0.00
2012-12-14,77,69,62,68,63,58,99,84,52,29.99,29.89,6,1,0,0.04
2012-12-15,79,72,66,68,65,63,99,80,62,29.96,29.86,6,2,0,0.16
2012-12-16,82,72,66,72,67,65,99,88,62,29.89,29.79,4,0,0,0.00
2012-12-17,84,72,62,69,66,62,99,84,53,29.83,29.73,3,0,0,0.00
2012-12-18,81,72,65,71,67,65,99,86,59,29.88,29.76,2,0,0,0.00
2012-12-19,78,68,57,65,61,56,98,82,53,29.96,29.86,5,0,0,0.00
2012-12-20,79,68,61,68,65,61,99,89,61,29.96,29.82,3,0,0,0.00
2012-12-21,70,63,50,69,51,35,97,69,34,30.04,29.80,7,2,0,0.49
2012-12-22,65,53,44,37,29,19,61,41,19,30.13,30.04,13,6,0,0.00
2012-12-23,71,59,48,54,44,32,83,59,45,30.11,30.00,9,3,0,0.00
2012-12-24,78,66,55,60,56,52,96,73,49,30.00,29.84,11,2,0,0.00
2012-12-25,78,69,57,64,61,57,99,77,55,29.91,29.79,12,3,0,0.00
2012-12-26,84,74,62,70,67,57,99,79,56,29.85,29.68,19,7,0,0.00
2012-12-27,71,60,51,57,48,41,98,70,34,29.94,29.84,9,3,0,0.00
2012-12-28,76,67,52,70,62,51,99,85,67,29.95,29.82,9,4,0,0.00
2012-12-29,82,75,60,74,70,52,99,85,63,29.97,29.79,14,7,0,0.00
2012-12-30,67,60,49,56,50,44,85,72,62,30.16,29.98,14,8,0,0.00
2012-12-31,73,69,65,59,57,53,68,64,58,30.17,30.05,16,7,0,0.00
2013-1-1,79,72,65,63,60,57,84,66,54,30.07,29.91,16,4,0,0.00